Simultaneous Nadir Overpasses (SNOs) Predictions

Prediction of SNOs between AQUA and GOES-15 Satellite Orbit:

Table of predicted SNOs for the next 14.0 days since TLE Epoch: 8/26/2016
Index Date Time (AQUA) AQUA Lat,Lon GOES-15 Lat,Lon Distance(km) Time Diff (sec)
1 08/27/2016 22:28:24 0.04,-133.31 -0.37,-135.20 214.05 80
2 08/28/2016 10:49:40 1.05,-138.47 0.37,-135.22 369.59 80
3 08/30/2016 10:37:29 0.42,-135.52 0.36,-135.27 28.24 80
4 09/01/2016 10:25:18 -0.21,-132.57 0.36,-135.32 312.99 80
5 09/01/2016 22:46:42 -0.89,-137.76 -0.36,-135.32 277.80 80
6 09/03/2016 22:34:31 -0.25,-134.81 -0.36,-135.37 63.28 80
7 09/05/2016 22:22:20 0.39,-131.86 -0.36,-135.41 403.88 80
8 09/06/2016 10:43:36 0.71,-137.02 0.35,-135.44 179.54 80
9 09/08/2016 10:31:25 0.06,-134.06 0.35,-135.47 160.07 80
10 09/08/2016 22:52:48 -1.15,-139.26 -0.34,-135.46 432.23 80




NCC Satellite Simultaneous Nadir Overpasses (SNOs) Prediction Service
